Selinsgrove, PA

7:23 AM EDT on April 23, 2018 (GMT -0400)
Penn Valley

Weather History for KSEG - July, 2013

Change the Weather History Date:

Saturday, July 20, 2013

  Actual Average (KIPT) Record (KIPT)
Temperature  
Mean Temperature 82 °F -  
Max Temperature 91 °F 81 °F 100 °F (1991)
Min Temperature 73 °F 59 °F 43 °F (1965)
Cooling Degree Days 16    
Growing Degree Days 32 (Base 50)    
Moisture  
Dew Point 71 °F    
Average Humidity 76    
Maximum Humidity 93    
Minimum Humidity 49    
Precipitation  
Precipitation 0.00 in - - ()
Sea Level Pressure  
Sea Level Pressure 29.82 in    
Wind  
Wind Speed 3 mph (SW)    
Max Wind Speed 9 mph    
Max Gust Speed -    
Visibility 7 miles    
Events      
Averages and records for this station are not official NWS values.
T = Trace of Precipitation, MM = Missing Value Source: NWS Daily Summary

Daily Weather History Graph

Daily Weather History Graph

Search for Another Location

Airport or City:

Astronomy

Jul. 20, 2013 Rise Set
Actual Time 5:53 AM EDT 8:34 PM EDT
Civil Twilight 5:21 AM EDT 9:05 PM EDT
Nautical Twilight 4:41 AM EDT 9:45 PM EDT
Astronomical Twilight 3:55 AM EDT 10:31 PM EDT
Moon 6:35 PM EDT (7/20) 3:30 AM EDT (7/20)
Length of Visible Light 15h 44m
Length of Day
14h 40m
Waxing Gibbous, 93% of the Moon is Illuminated
Jul 20
Waxing Gibbous
Jul 22
Full
Jul 29
Last Quarter
Aug 6
New
Aug 14
First Quarter

Hourly Weather History & Observations

Time (EDT) Temp. Heat Index Dew Point Humidity Pressure Visibility Wind Dir Wind Speed Gust Speed Precip Events Conditions
12:53 AM 77.0 °F - 71.1 °F 82% 29.86 in 6.0 mi SW 3.5 mph - N/A   Haze
1:53 AM 75.0 °F - 71.1 °F 87% 29.86 in 5.0 mi Calm Calm - N/A   Clear
2:53 AM 73.9 °F - 71.1 °F 91% 29.82 in 5.0 mi Calm Calm - N/A   Clear
3:53 AM 73.9 °F - 70.0 °F 87% 29.81 in 5.0 mi SSW 3.5 mph - N/A   Clear
4:53 AM 73.9 °F - 71.1 °F 91% 29.83 in 5.0 mi Calm Calm - N/A   Clear
5:53 AM 75.0 °F - 70.0 °F 84% 29.83 in 6.0 mi Calm Calm - N/A   Haze
6:53 AM 75.0 °F - 70.0 °F 84% 29.83 in 6.0 mi Calm Calm - N/A   Haze
7:53 AM 75.9 °F - 70.0 °F 82% 29.85 in 6.0 mi Calm Calm - N/A   Haze
8:53 AM 77.0 °F - 71.1 °F 82% 29.85 in 6.0 mi Calm Calm - N/A   Haze
9:53 AM 79.0 °F - 71.1 °F 77% 29.83 in 6.0 mi South 5.8 mph - N/A   Haze
10:53 AM 80.1 °F 83.8 °F 72.0 °F 76% 29.80 in 6.0 mi South 9.2 mph - 0.00 in   Haze
11:53 AM 84.0 °F 90.2 °F 73.0 °F 69% 29.81 in 6.0 mi Variable 4.6 mph - N/A   Haze
12:53 PM 84.9 °F 90.7 °F 72.0 °F 65% 29.80 in 7.0 mi SW 9.2 mph - N/A   Clear
1:53 PM 87.1 °F 92.0 °F 70.0 °F 57% 29.80 in 8.0 mi Variable 4.6 mph - N/A   Partly Cloudy
2:53 PM 90.0 °F 96.4 °F 71.1 °F 54% 29.78 in 10.0 mi Variable 4.6 mph - N/A   Clear
3:53 PM 90.0 °F 95.4 °F 70.0 °F 52% 29.77 in 10.0 mi Variable 5.8 mph - N/A   Scattered Clouds
4:53 PM 89.1 °F 94.1 °F 70.0 °F 53% 29.77 in 10.0 mi West 5.8 mph - N/A   Partly Cloudy
5:53 PM 88.0 °F 90.7 °F 66.9 °F 49% 29.78 in 10.0 mi NW 6.9 mph - N/A   Clear
6:53 PM 84.0 °F 87.0 °F 68.0 °F 58% 29.79 in 10.0 mi WNW 3.5 mph - N/A   Mostly Cloudy
7:53 PM 78.1 °F - 71.1 °F 79% 29.81 in 9.0 mi Calm Calm - 0.00 in   Clear
8:53 PM 75.0 °F - 72.0 °F 90% 29.83 in 8.0 mi Calm Calm - N/A   Scattered Clouds
9:53 PM 73.9 °F - 71.1 °F 91% 29.84 in 5.0 mi Calm Calm - N/A   Clear
10:53 PM 73.0 °F - 71.1 °F 93% 29.86 in 6.0 mi Calm Calm - N/A   Clear
11:53 PM 73.9 °F - 70.0 °F 87% 29.87 in 6.0 mi Calm Calm - N/A   Partly Cloudy